Regional Weather Roundup
Issued by NWS Charleston, WV

Home | Current Version | Previous Version | Graphics & Text | Print | Product List | Glossary On
Versions: 1 2 3 4 5 6 7 8 9 10 11 12 13 14 15 16 17 18 19 20 21 22 23 24 25 26 27 28 29 30 31 32 33 34 35 36 37 38 39 40 41 42 43 44 45 46 47 48 49 50
000
ASUS41 KRLX 020910
RWRRLX
West Virginia Regional Weather Roundup
National Weather Service Charleston WV
400 AM EST MON MAR 02 2015

Note: "fair" indicates few or no clouds below 12,000 feet with no
significant weather and/or obstructions to visibility.

WVZ003-021000-
Northern Panhandle of West Virginia

CITY           SKY/WX    TMP DP  RH WIND       PRES   REMARKS
WHEELING       CLOUDY    29  23  78 W13G18    30.20R
$$

WVZ009-021000-
Northwest West Virginia

CITY           SKY/WX    TMP DP  RH WIND       PRES   REMARKS
PARKERSBURG    CLOUDY    33  27  78 W12G18    30.28S
$$

WVZ006-021000-
Western West Virginia

CITY           SKY/WX    TMP DP  RH WIND       PRES   REMARKS
HUNTINGTON     CLOUDY    33  33 100 N6        30.29S FOG
$$

WVZ015-021000-
West Central West Virginia

CITY           SKY/WX    TMP DP  RH WIND       PRES   REMARKS
CHARLESTON     LGT RAIN  35  33  92 NW10      30.26R VSB 1
$$

WVZ022-031-021000-
North Central West Virginia

CITY           SKY/WX    TMP DP  RH WIND       PRES   REMARKS
CLARKSBURG     FLURRIES  33  31  92 W13       30.20R
MORGANTOWN     CLOUDY    34  27  75 W10       30.18R
$$

WVZ025-035-042-045-021000-
Southern West Virginia

CITY           SKY/WX    TMP DP  RH WIND       PRES   REMARKS
BECKLEY        LGT RAIN  37  35  92 NW8       30.18S
LOGAN          NOT AVBL
BLUEFIELD      LGT RAIN  44  40  85 W14G21    30.17R FOG
LEWISBURG      DRIZZLE   41  39  93 W9        30.15R
$$

WVZ047-021000-
Northern Mountains of West Virginia

CITY           SKY/WX    TMP DP  RH WIND       PRES   REMARKS
ELKINS         FLURRIES  35  33  92 W13       30.14S
$$

WVZ052-021000-
Eastern Panhandle of West Virginia

CITY           SKY/WX    TMP DP  RH WIND       PRES   REMARKS
MARTINSBURG    CLOUDY    32  29  88 CALM      30.07F FOG
PETERSBURG     DRIZZLE   46  32  58 W15G28    30.07R
$$


USA.gov is the U.S. government's official web portal to all federal, state and local government web resources and services.